FW9241 Weather Reports


time (UTC)temp
C
wind
direction
speed
KPH
gust
KPH
rain 1hr
cm
rain 24hr
cm
rain mn
cm
humidity
%
barometer
mb
20260506233110 13 0 0.0 1.6 0.03 0.94 0.94 95 1005.6
20260506231602 13 258 0.0 1.6 0.03 0.94 0.94 95 1005.5
20260506230058 13 248 0.0 1.6 0.00 0.91 0.91 95 1005.3
20260506224559 13 0 0.0 3.2 0.00 0.91 0.91 95 1005.3
20260506223057 13 0 0.0 3.2 0.03 0.91 0.91 95 1005.3
20260506221558 13 244 0.0 3.2 0.15 0.91 0.91 94 1005.3
20260506220056 13 256 0.0 3.2 0.28 0.91 0.91 94 1005.4
20260506214555 13 253 0.0 3.2 0.30 0.91 0.91 94 1005.5
20260506213124 13 0 0.0 3.2 0.33 0.89 0.89 94 1005.3
20260506211602 13 250 0.0 3.2 0.25 0.76 0.76 94 1005.4
20260506210058 13 251 0.0 3.2 0.13 0.64 0.64 94 1005.4
20260506204712 13 0 0.0 4.8 0.13 0.61 0.61 94 1005.5
20260506203055 13 233 0.0 3.2 0.10 0.56 0.56 94 1005.6
20260506201556 13 0 0.0 3.2 0.13 0.51 0.51 94 1005.6
20260506200054 13 255 1.6 4.8 0.15 0.51 0.51 93 1005.8
20260506194559 13 0 1.6 4.8 0.18 0.48 0.48 93 1005.9
20260506193135 13 228 1.6 6.4 0.20 0.46 0.46 93 1006.1
20260506191556 13 248 1.6 6.4 0.15 0.38 0.38 93 1006.1
20260506190101 13 231 3.2 4.8 0.18 0.36 0.36 92 1006.2
20260506184556 13 240 1.6 4.8 0.13 0.30 0.30 92 1006.5
20260506183103 13 226 1.6 3.2 0.10 0.25 0.25 92 1006.7
20260506181623 13 158 3.2 8.0 0.10 0.23 0.23 91 1006.7
20260506180059 14 0 1.6 6.4 0.13 0.18 0.18 91 1006.9
20260506174556 14 244 0.0 3.2 0.18 0.18 0.18 91 1006.7
20260506173101 14 246 1.6 4.8 0.15 0.15 0.15 91 1006.9
20260506171553 15 233 0.0 3.2 0.13 0.13 0.13 89 1007.1
20260506170056 15 233 1.6 4.8 0.05 0.05 0.05 87 1007.9
20260506164604 16 0 1.6 3.2 0.00 0.00 0.00 84 1008.1
20260506163100 16 251 1.6 3.2 0.00 0.00 0.00 81 1007.8
20260506161554 16 249 1.6 4.8 0.00 0.00 0.00 80 1007.9
20260506154603 16 207 1.6 6.4 0.00 0.00 0.00 79 1008.2
20260506153115 16 221 1.6 4.8 0.00 0.00 0.00 80 1008.4
20260506151556 16 253 1.6 4.8 0.00 0.00 0.00 80 1008.5
20260506144559 15 251 0.0 4.8 0.00 0.00 0.00 82 1008.8
20260506143057 15 243 1.6 4.8 0.00 0.00 0.00 82 1008.9
20260506141556 15 242 1.6 6.4 0.00 0.00 0.00 82 1008.9
20260506140057 15 236 1.6 6.4 0.00 0.00 0.00 82 1008.8
20260506134555 15 248 1.6 4.8 0.00 0.00 0.00 82 1008.7
20260506133053 15 0 1.6 8.0 0.00 0.00 0.00 83 1008.5
20260506131600 15 250 1.6 4.8 0.00 0.00 0.00 83 1008.5
20260506130056 15 248 0.0 3.2 0.00 0.00 0.00 84 1008.8
20260506124555 15 0 0.0 3.2 0.00 0.00 0.00 84 1008.7
20260506123057 15 0 0.0 3.2 0.00 0.00 0.00 84 1009.0
20260506121557 14 242 0.0 4.8 0.00 0.00 0.00 86 1009.0
20260506120057 13 238 0.0 3.2 0.00 0.00 0.00 87 1009.0
20260506114602 13 239 0.0 3.2 0.00 0.00 0.00 88 1009.1
20260506113056 12 0 0.0 4.8 0.00 0.00 0.00 88 1009.1
20260506111600 12 244 0.0 4.8 0.00 0.00 0.00 89 1009.1
20260506110110 12 242 0.0 3.2 0.00 0.00 0.00 89 1009.0
20260506104601 12 238 0.0 3.2 0.00 0.00 0.00 89 1009.5
20260506103057 12 0 0.0 3.2 0.00 0.00 0.00 89 1009.2
20260506101556 12 0 0.0 3.2 0.00 0.00 0.00 89 1009.2
20260506100056 12 0 0.0 3.2 0.00 0.00 0.00 89 1008.9
20260506094555 11 236 0.0 3.2 0.00 0.00 0.00 89 1008.9
20260506093055 11 165 0.0 1.6 0.00 0.00 0.00 88 1008.8
20260506091559 12 247 0.0 1.6 0.00 0.00 0.00 87 1008.9
20260506090101 12 0 0.0 1.6 0.00 0.00 0.00 87 1009.1
20260506084602 12 248 0.0 0.0 0.00 0.00 0.00 85 1009.1
20260506083057 12 0 0.0 1.6 0.00 0.00 0.00 85 1009.1
20260506081600 12 0 0.0 3.2 0.00 0.00 0.00 84 1009.2
20260506080105 12 0 0.0 3.2 0.00 0.00 0.00 83 1009.0
20260506073058 13 237 0.0 3.2 0.00 0.00 0.00 81 1009.1
20260506071603 13 248 0.0 3.2 0.00 0.00 0.00 82 1009.1
20260506061555 13 0 0.0 0.0 0.00 0.00 0.00 79 1009.2
20260506050105 15 236 1.6 3.2 0.00 0.00 0.00 74 1009.3
20260506044555 15 243 0.0 3.2 0.00 0.00 0.00 73 1009.4
20260506043100 15 0 0.0 1.6 0.00 0.00 0.00 73 1009.6
20260506041558 16 252 1.6 4.8 0.00 0.00 0.00 72 1009.3
20260506040054 15 238 1.6 6.4 0.00 0.00 0.00 72 1009.3
20260506034615 15 201 1.6 4.8 0.00 0.00 0.00 72 1009.4
20260506033103 16 236 1.6 3.2 0.00 0.00 0.00 72 1009.5
20260506031608 16 0 0.0 1.6 0.00 0.00 0.00 71 1009.7
20260506030058 16 0 0.0 3.2 0.00 0.00 0.00 70 1009.6
20260506024613 16 221 0.0 3.2 0.00 0.00 0.00 70 1009.7
20260506023055 16 248 0.0 4.8 0.00 0.00 0.00 69 1009.4
20260506021559 16 242 1.6 3.2 0.00 0.00 0.00 69 1009.4
20260506020100 17 257 0.0 3.2 0.00 0.00 0.00 68 1009.3
20260506014557 17 0 0.0 4.8 0.00 0.00 0.00 67 1009.3
20260506013108 17 257 1.6 3.2 0.00 0.00 0.00 67 1009.3
20260506011607 17 241 1.6 4.8 0.00 0.00 0.00 66 1009.2
20260506010058 17 240 1.6 4.8 0.00 0.00 0.00 65 1009.1
20260506004558 17 246 0.0 4.8 0.00 0.00 0.00 65 1008.9
20260506003058 18 239 1.6 6.4 0.00 0.00 0.00 63 1008.7
20260506001557 18 240 1.6 4.8 0.00 0.00 0.00 62 1008.4
20260506000053 19 0 1.6 6.4 0.00 0.00 0.00 61 1008.1
20260505234559 19 240 1.6 9.7 0.00 0.00 0.00 59 1007.8